Weather in Ommi

Russia / Khabarovsk Krai     50°05′25″N   136°47′19″E
temp.,
°C
wind,
m/s
gust,
m/s
humid.,
%
clouds,
%
prec.,
mm/h
press.,
hPa
HPBL,
m
27 february, sat
sat2701:00−19ssw3699100 0.1 1032136
04:00−20ssw4899100 0.1 1032214
07:00−21ssw41098100 0.1 1033261
10:00−20ssw5996100 0.1 1032402
13:00−16ssw61092100 0.0 1030487
16:00−13sw61189100 0.1 1026569
19:00−13ssw41090100 0.0 1025411
22:00−14ssw3493100 0.0 1022146
28 february, sun
sun2801:00−14ssw3793100 0.0 1018241
04:00−12ssw51193100 0.8 1014397
07:00−11sw71491100 0.1 1014599
10:00−10sw61291100 0.1 1013595
13:00−6wsw51082100 0.0 1013827
16:00−5sw7107392 0.0 1013966
19:00−11ssw498152 0.0 1017177
22:00−13sse358976 0.1 1020138
1 march, mon
mon101:00−17sse358896 0.0 102286
04:00−20ese239285 0.0 102324
07:00−22sse249990 0.0 102566
10:00−19s469395 0.1 1026390
13:00−17ssw4785100 0.0 1026601
16:00−15sw358774 0.1 1026428
19:00−20sse229130 0.0 102720
22:00−23ssw228820 0.0 102931
2 march, tue
tue201:00−24ssw229329 0.0 102930
04:00−25ssw339258 0.0 103039
07:00−27s239328 0.0 103122
10:00−23ssw358914 0.0 1031282
13:00−20ssw35830 0.0 1029494
16:00−19ssw23835 0.0 1028367
19:00−24ssw12907 0.0 103020
22:00−25se11863 0.0 103120
3 march, wed
wed301:00−26ssw22958 0.0 103119
04:00−27s339711 0.0 103027
07:00−28s349912 0.0 102946
10:00−23ssw479420 0.0 1027298
13:00−19ssw589392 0.0 1024424
16:00−16sw598896 0.0 1020453
19:00−18ssw3592100 0.0 1019101
22:00−18ssw3491100 0.0 101779